Weather History for Peoria, IL

Change the Weather History Date:

Wednesday, November 6, 2013

  Actual Average Record
Temperature  
Mean Temperature 46 °F 46 °F  
Max Temperature 57 °F 56 °F 77 °F (1915)
Min Temperature 34 °F 37 °F 17 °F (1991)
Degree Days  
Heating Degree Days 19 19  
Month to date heating degree days 106 106  
Since 1 July heating degree days 484 552  
Cooling Degree Days 0 0  
Month to date cooling degree days 0 0  
Year to date cooling degree days 1174 1039  
Moisture  
Dew Point 42 °F    
Average Humidity 82    
Maximum Humidity 93    
Minimum Humidity 70    
Precipitation  
Precipitation 0.67 in 0.11 in 1.40 in (2000)
Month to date precipitation 1.06 0.63  
Year to date precipitation 39.87 31.57  
Snow  
Snow 0.00 in 0.00 in 6.50 in (1951)
Month to date snowfall 0.0 0.0  
Since 1 July snowfall T T  
Since 1 September snowfall T T  
Snow Depth 0.00 in    
Sea Level Pressure  
Sea Level Pressure 30.01 in    
Wind  
Wind Speed 11 mph (West)    
Max Wind Speed 21 mph    
Max Gust Speed 30 mph    
Visibility 8 miles    
Events Rain    
T = Trace of Precipitation, MM = Missing Value Source: NWS Daily Summary

Daily Weather History Graph

Daily Weather History Graph

Search for Another Location

Airport:

Trip Planner

Search our weather history database for the weather conditions in past years. The results will help you decide how hot, cold, wet, or windy it might be!

Date:

Astronomy

Nov. 06, 2013 Rise Set
Actual Time 6:35 AM CST 4:49 PM CST
Civil Twilight 6:06 AM CST 5:17 PM CST
Nautical Twilight 5:33 AM CST 5:50 PM CST
Astronomical Twilight 5:01 AM CST 6:22 PM CST
Moon 9:50 AM CST (11/6) 7:53 PM CST (11/6)
Length of Visible Light 11h 11m
Length of Day
10h 13m
Waxing Crescent, 14% of the Moon is Illuminated
Nov 6
Waxing Crescent
Nov 9
First Quarter
Nov 17
Full
Nov 25
Last Quarter
Dec 2
New

Hourly Weather History & Observations

Time (CST) Temp. Windchill Dew Point Humidity Pressure Visibility Wind Dir Wind Speed Gust Speed Precip Events Conditions
12:54 AM 54.0 °F - 51.1 °F 90% 29.94 in 10.0 mi SSW 12.7 mph - 0.08 in Rain Light Rain
1:08 AM 54.0 °F - 51.1 °F 90% 29.92 in 3.0 mi SSW 12.7 mph - 0.02 in Rain Rain
1:15 AM 54.0 °F - 52.0 °F 93% 29.92 in 5.0 mi SSW 13.8 mph - 0.02 in Rain Light Rain
1:54 AM 54.0 °F - 52.0 °F 93% 29.91 in 10.0 mi South 17.3 mph - 0.04 in   Overcast
2:54 AM 55.0 °F - 52.0 °F 89% 29.88 in 10.0 mi South 17.3 mph 24.2 mph 0.01 in   Overcast
3:51 AM 55.4 °F - 53.6 °F 94% 29.88 in 1.8 mi SSW 16.1 mph - 0.15 in Rain Heavy Rain
3:54 AM 55.9 °F - 54.0 °F 93% 29.88 in 1.5 mi SSW 16.1 mph - 0.21 in Rain Heavy Rain
4:07 AM 55.9 °F - 54.0 °F 93% 29.88 in 2.5 mi SSW 13.8 mph - 0.11 in Rain Heavy Rain
4:14 AM 55.9 °F - 54.0 °F 93% 29.88 in 4.0 mi SSW 11.5 mph 20.7 mph 0.15 in Rain Heavy Rain
4:54 AM 55.9 °F - 54.0 °F 93% 29.87 in 7.0 mi SSW 13.8 mph 23.0 mph 0.17 in Rain Light Rain
5:54 AM 55.9 °F - 54.0 °F 93% 29.86 in 6.0 mi SSW 15.0 mph 25.3 mph 0.07 in Rain Light Rain
6:54 AM 57.0 °F - 54.0 °F 89% 29.86 in 7.0 mi SSW 12.7 mph - 0.08 in Rain Light Rain
7:54 AM 57.0 °F - 55.0 °F 93% 29.86 in 10.0 mi SSW 12.7 mph - 0.01 in Rain Light Rain
8:54 AM 53.1 °F - 50.0 °F 89% 29.88 in 10.0 mi West 17.3 mph 24.2 mph 0.01 in   Overcast
9:01 AM 50.0 °F - 46.9 °F 89% 29.90 in 10.0 mi WNW 16.1 mph 27.6 mph N/A   Overcast
9:39 AM 46.0 °F 39.3 °F 43.0 °F 89% 29.92 in 2.0 mi WNW 16.1 mph 25.3 mph N/A   Overcast
9:54 AM 45.0 °F 36.9 °F 42.1 °F 90% 29.96 in 2.0 mi West 20.7 mph 29.9 mph 0.00 in Rain Light Rain
10:16 AM 43.0 °F 35.7 °F 41.0 °F 93% 29.95 in 4.0 mi WNW 15.0 mph 26.5 mph 0.00 in Rain Light Rain
10:43 AM 42.1 °F 34.2 °F 39.0 °F 89% 29.97 in 10.0 mi WNW 16.1 mph 27.6 mph 0.00 in   Overcast
10:54 AM 42.1 °F 34.5 °F 39.0 °F 89% 29.98 in 8.0 mi WNW 15.0 mph - 0.00 in   Overcast
11:24 AM 42.1 °F 35.7 °F 37.9 °F 85% 29.98 in 10.0 mi WNW 11.5 mph 25.3 mph 0.00 in   Overcast
11:54 AM 43.0 °F 37.2 °F 39.0 °F 86% 30.01 in 10.0 mi WNW 10.4 mph 19.6 mph 0.00 in   Overcast
12:04 PM 42.1 °F 34.9 °F 37.9 °F 85% 30.00 in 10.0 mi WNW 13.8 mph - N/A   Overcast
12:32 PM 42.1 °F 34.9 °F 37.9 °F 85% 30.00 in 10.0 mi WNW 13.8 mph 19.6 mph N/A   Overcast
12:41 PM 42.1 °F 36.1 °F 37.0 °F 82% 30.01 in 10.0 mi WNW 10.4 mph 24.2 mph N/A   Overcast
12:54 PM 42.1 °F 35.2 °F 37.0 °F 82% 30.02 in 10.0 mi WNW 12.7 mph 21.9 mph N/A   Overcast
1:54 PM 43.0 °F 37.7 °F 37.0 °F 80% 30.06 in 10.0 mi NW 9.2 mph - N/A   Overcast
2:05 PM 43.0 °F 37.2 °F 36.0 °F 76% 30.06 in 10.0 mi NW 10.4 mph 16.1 mph N/A   Overcast
2:54 PM 44.1 °F 39.5 °F 37.0 °F 76% 30.08 in 10.0 mi WNW 8.1 mph - N/A   Overcast
3:39 PM 44.1 °F 39.5 °F 36.0 °F 73% 30.09 in 10.0 mi WNW 8.1 mph - N/A   Overcast
3:49 PM 44.6 °F 38.8 °F 35.6 °F 71% 30.10 in 10.0 mi NW 11.5 mph 17.3 mph N/A   Overcast
3:54 PM 44.1 °F 38.6 °F 36.0 °F 73% 30.11 in 10.0 mi NW 10.4 mph 17.3 mph N/A   Overcast
4:54 PM 43.0 °F 40.3 °F 35.1 °F 74% 30.13 in 10.0 mi WNW 4.6 mph - N/A   Partly Cloudy
5:54 PM 41.0 °F 38.0 °F 35.1 °F 79% 30.16 in 10.0 mi West 4.6 mph - N/A   Partly Cloudy
6:54 PM 39.0 °F 34.8 °F 34.0 °F 82% 30.19 in 10.0 mi West 5.8 mph - N/A   Clear
7:54 PM 39.0 °F 35.7 °F 33.1 °F 79% 30.19 in 10.0 mi WNW 4.6 mph - N/A   Clear
8:54 PM 37.9 °F 34.4 °F 30.9 °F 76% 30.21 in 10.0 mi West 4.6 mph - N/A   Clear
9:54 PM 37.0 °F 32.4 °F 28.9 °F 73% 30.23 in 10.0 mi NW 5.8 mph - N/A   Clear
10:54 PM 36.0 °F 33.3 °F 28.0 °F 73% 30.25 in 10.0 mi NW 3.5 mph - N/A   Clear
11:54 PM 34.0 °F 29.8 °F 27.0 °F 75% 30.26 in 10.0 mi NW 4.6 mph - N/A   Clear